| time (UTC) | temp C | wind direction | speed KPH | gust KPH | rain 1hr cm | rain 24hr cm | rain mn cm | humidity % | barometer mb |
| 20260503005340 | 10 | 279 | 0.0 | 1.6 | 0.25 | 1.45 | 0.48 | 96 | 1011.0 |
| 20260503004321 | 10 | 0.0 | 0.0 | 0.23 | 1.40 | 0.43 | 96 | 1011.2 | |
| 20260503003318 | 10 | 0.0 | 0.0 | 0.20 | 1.35 | 0.41 | 96 | 1011.3 | |
| 20260503002318 | 10 | 302 | 0.0 | 1.6 | 0.23 | 1.30 | 0.36 | 96 | 1011.4 |
| 20260503001318 | 10 | 0.0 | 0.0 | 0.23 | 1.24 | 0.30 | 96 | 1011.4 | |
| 20260503000319 | 10 | 271 | 0.0 | 3.2 | 0.25 | 1.22 | 0.28 | 96 | 1011.5 |
| 20260502235318 | 10 | 256 | 0.0 | 3.2 | 0.28 | 1.19 | 0.25 | 96 | 1011.6 |
| 20260502234339 | 10 | 0.0 | 0.0 | 0.33 | 1.17 | 0.23 | 96 | 1011.7 | |
| 20260502233319 | 10 | 0.0 | 0.0 | 0.38 | 1.14 | 0.20 | 95 | 1011.7 | |
| 20260502232319 | 10 | 263 | 0.0 | 3.2 | 0.38 | 1.09 | 0.13 | 95 | 1011.7 |
| 20260502231320 | 10 | 0.0 | 0.0 | 0.41 | 1.04 | 0.08 | 95 | 1011.8 | |
| 20260502230317 | 10 | 0.0 | 0.0 | 0.43 | 0.97 | 0.03 | 95 | 1011.8 | |
| 20260502225319 | 10 | 249 | 1.6 | 3.2 | 0.43 | 0.91 | 0.91 | 95 | 1011.8 |
| 20260502224339 | 10 | 288 | 0.0 | 3.2 | 0.41 | 0.84 | 0.84 | 95 | 1011.8 |
| 20260502223340 | 10 | 233 | 0.0 | 3.2 | 0.38 | 0.79 | 0.79 | 94 | 1011.8 |
| 20260502222317 | 10 | 288 | 0.0 | 1.6 | 0.36 | 0.71 | 0.71 | 94 | 1011.8 |
| 20260502221317 | 10 | 279 | 0.0 | 3.2 | 0.33 | 0.64 | 0.64 | 94 | 1011.9 |
| 20260502220340 | 10 | 0.0 | 0.0 | 0.28 | 0.53 | 0.53 | 94 | 1011.9 | |
| 20260502215400 | 10 | 0.0 | 0.0 | 0.25 | 0.48 | 0.48 | 94 | 1012.0 | |
| 20260502214317 | 10 | 0.0 | 0.0 | 0.25 | 0.46 | 0.46 | 93 | 1012.1 | |
| 20260502213318 | 10 | 0.0 | 0.0 | 0.23 | 0.38 | 0.38 | 93 | 1012.2 | |
| 20260502212318 | 10 | 0.0 | 0.0 | 0.20 | 0.36 | 0.36 | 93 | 1012.2 | |
| 20260502211319 | 11 | 271 | 0.0 | 1.6 | 0.18 | 0.30 | 0.30 | 92 | 1012.2 |
| 20260502210318 | 11 | 0.0 | 0.0 | 0.18 | 0.25 | 0.25 | 92 | 1012.2 | |
| 20260502205318 | 11 | 0.0 | 0.0 | 0.18 | 0.23 | 0.23 | 92 | 1012.3 | |
| 20260502204359 | 11 | 0.0 | 0.0 | 0.15 | 0.20 | 0.20 | 92 | 1012.4 | |
| 20260502203319 | 11 | 0.0 | 0.0 | 0.15 | 0.18 | 0.18 | 91 | 1012.5 | |
| 20260502202319 | 11 | 0.0 | 0.0 | 0.10 | 0.13 | 0.13 | 91 | 1012.5 | |
| 20260502201339 | 11 | 0.0 | 0.0 | 0.10 | 0.10 | 0.10 | 91 | 1012.6 | |
| 20260502200319 | 11 | 0.0 | 0.0 | 0.08 | 0.08 | 0.08 | 90 | 1012.6 | |
| 20260502195320 | 11 | 0.0 | 0.0 | 0.05 | 0.05 | 0.05 | 90 | 1012.7 | |
| 20260502194339 | 11 | 285 | 0.0 | 3.2 | 0.03 | 0.03 | 0.03 | 89 | 1012.6 |
| 20260502193317 | 11 | 0.0 | 0.0 | 0.03 | 0.03 | 0.03 | 88 | 1012.6 | |
| 20260502192337 | 11 | 277 | 0.0 | 3.2 | 0.03 | 0.03 | 0.03 | 87 | 1012.6 |
| 20260502191320 | 11 | 0.0 | 0.0 | 0.00 | 0.00 | 0.00 | 87 | 1012.7 | |
| 20260502190320 | 11 | 280 | 0.0 | 3.2 | 0.00 | 0.00 | 0.00 | 86 | 1012.7 |
| 20260502185337 | 12 | 318 | 0.0 | 1.6 | 0.00 | 0.00 | 0.00 | 84 | 1012.6 |
| 20260502184317 | 12 | 303 | 0.0 | 1.6 | 0.00 | 0.00 | 0.00 | 83 | 1012.6 |
| 20260502183317 | 12 | 0.0 | 0.0 | 0.00 | 0.00 | 0.00 | 81 | 1012.7 | |
| 20260502182318 | 12 | 0.0 | 0.0 | 0.00 | 0.00 | 0.00 | 79 | 1012.7 | |
| 20260502181321 | 12 | 0.0 | 0.0 | 0.00 | 0.00 | 0.00 | 77 | 1012.7 | |
| 20260502180318 | 13 | 248 | 0.0 | 3.2 | 0.00 | 0.00 | 0.00 | 76 | 1012.8 |
| 20260502170319 | 13 | 0.0 | 0.0 | 0.00 | 0.00 | 0.00 | 75 | 1013.1 | |
| 20260502164319 | 13 | 295 | 1.6 | 6.4 | 0.00 | 0.00 | 0.00 | 75 | 1013.1 |
| 20260502163337 | 13 | 246 | 0.0 | 1.6 | 0.00 | 0.00 | 0.00 | 74 | 1013.1 |
| 20260502162317 | 13 | 294 | 1.6 | 4.8 | 0.00 | 0.00 | 0.00 | 74 | 1013.2 |
| 20260502161320 | 13 | 292 | 1.6 | 4.8 | 0.00 | 0.00 | 0.00 | 74 | 1013.3 |
| 20260502160320 | 14 | 5 | 1.6 | 4.8 | 0.00 | 0.00 | 0.00 | 74 | 1013.4 |
| 20260502152318 | 15 | 343 | 3.2 | 8.0 | 0.00 | 0.00 | 0.00 | 70 | 1013.9 |
| 20260502151338 | 15 | 306 | 3.2 | 9.7 | 0.00 | 0.00 | 0.00 | 69 | 1013.8 |
| 20260502150318 | 15 | 306 | 1.6 | 8.0 | 0.00 | 0.00 | 0.00 | 70 | 1013.9 |
| 20260502130320 | 17 | 5 | 0.0 | 1.6 | 0.00 | 0.00 | 0.00 | 55 | 1014.9 |
| 20260502123318 | 16 | 227 | 3.2 | 6.4 | 0.00 | 0.00 | 0.00 | 58 | 1015.4 |
| 20260502122318 | 16 | 208 | 3.2 | 8.0 | 0.00 | 0.00 | 0.00 | 57 | 1015.5 |
| 20260502121318 | 16 | 215 | 4.8 | 8.0 | 0.00 | 0.00 | 0.00 | 59 | 1015.7 |
| 20260502120318 | 16 | 208 | 1.6 | 4.8 | 0.00 | 0.00 | 0.00 | 57 | 1015.9 |
| 20260502115318 | 15 | 0.0 | 0.0 | 0.00 | 0.03 | 0.00 | 61 | 1016.1 | |
| 20260502114339 | 15 | 121 | 1.6 | 4.8 | 0.00 | 0.05 | 0.00 | 61 | 1016.1 |
| 20260502113318 | 15 | 297 | 1.6 | 4.8 | 0.00 | 0.08 | 0.00 | 66 | 1016.2 |
| 20260502112319 | 15 | 135 | 0.0 | 3.2 | 0.00 | 0.13 | 0.00 | 64 | 1016.3 |
| 20260502111319 | 15 | 195 | 3.2 | 6.4 | 0.00 | 0.18 | 0.00 | 62 | 1016.3 |
| 20260502110319 | 15 | 202 | 3.2 | 6.4 | 0.00 | 0.25 | 0.00 | 62 | 1016.3 |
| 20260502105320 | 15 | 222 | 3.2 | 4.8 | 0.00 | 0.25 | 0.00 | 61 | 1016.4 |
| 20260502104316 | 15 | 222 | 4.8 | 9.7 | 0.00 | 0.25 | 0.00 | 63 | 1016.4 |
| 20260502103316 | 14 | 206 | 4.8 | 9.7 | 0.00 | 0.25 | 0.00 | 66 | 1016.3 |
| 20260502102320 | 13 | 242 | 4.8 | 8.0 | 0.00 | 0.25 | 0.00 | 69 | 1016.3 |
| 20260502101320 | 13 | 209 | 1.6 | 4.8 | 0.00 | 0.25 | 0.00 | 71 | 1016.4 |
| 20260502100320 | 13 | 219 | 0.0 | 3.2 | 0.00 | 0.25 | 0.00 | 71 | 1016.6 |
| 20260502091318 | 14 | 202 | 3.2 | 6.4 | 0.00 | 0.25 | 0.00 | 70 | 1017.0 |
| 20260502090318 | 14 | 141 | 1.6 | 6.4 | 0.00 | 0.25 | 0.00 | 69 | 1017.0 |
| 20260502071320 | 11 | 146 | 0.0 | 3.2 | 0.00 | 0.25 | 0.00 | 81 | 1017.2 |
| 20260502070320 | 12 | 120 | 3.2 | 4.8 | 0.00 | 0.25 | 0.00 | 80 | 1017.2 |
| 20260502065317 | 12 | 109 | 1.6 | 4.8 | 0.00 | 0.25 | 0.00 | 78 | 1017.1 |
| 20260502064317 | 12 | 156 | 0.0 | 3.2 | 0.00 | 0.25 | 0.00 | 81 | 1017.0 |
| 20260502063317 | 11 | 137 | 1.6 | 4.8 | 0.00 | 0.25 | 0.00 | 84 | 1016.8 |
| 20260502062317 | 10 | 0.0 | 0.0 | 0.00 | 0.25 | 0.00 | 87 | 1016.8 | |
| 20260502061318 | 10 | 0.0 | 0.0 | 0.00 | 0.25 | 0.00 | 90 | 1016.8 | |
| 20260502060318 | 9 | 51 | 0.0 | 1.6 | 0.00 | 0.25 | 0.00 | 91 | 1016.8 |
| 20260502055318 | 8 | 125 | 1.6 | 3.2 | 0.00 | 0.25 | 0.00 | 92 | 1016.8 |
| 20260502054318 | 8 | 0.0 | 0.0 | 0.00 | 0.25 | 0.00 | 92 | 1016.8 | |
| 20260502053318 | 8 | 0.0 | 0.0 | 0.00 | 0.25 | 0.00 | 93 | 1016.9 | |
| 20260502052319 | 8 | 0.0 | 0.0 | 0.00 | 0.25 | 0.00 | 93 | 1016.9 | |
| 20260502051319 | 7 | 0.0 | 0.0 | 0.00 | 0.25 | 0.00 | 93 | 1016.8 | |
| 20260502050319 | 7 | 139 | 0.0 | 0.0 | 0.00 | 0.25 | 0.00 | 93 | 1016.8 |
| 20260502045319 | 6 | 0.0 | 0.0 | 0.00 | 0.25 | 0.00 | 92 | 1016.9 | |
| 20260502044319 | 7 | 101 | 0.0 | 1.6 | 0.00 | 0.25 | 0.00 | 92 | 1016.9 |
| 20260502043340 | 7 | 0.0 | 0.0 | 0.00 | 0.25 | 0.00 | 92 | 1016.8 | |
| 20260502042320 | 7 | 0.0 | 0.0 | 0.00 | 0.25 | 0.00 | 92 | 1016.7 | |
| 20260502041320 | 7 | 0.0 | 0.0 | 0.00 | 0.25 | 0.00 | 92 | 1016.9 | |
| 20260502040320 | 7 | 60 | 0.0 | 0.0 | 0.00 | 0.25 | 0.00 | 92 | 1017.0 |
| 20260502035320 | 8 | 0.0 | 0.0 | 0.00 | 0.25 | 0.00 | 92 | 1017.0 | |
| 20260502034340 | 8 | 142 | 1.6 | 3.2 | 0.00 | 0.25 | 0.00 | 92 | 1017.1 |
| 20260502033321 | 8 | 0.0 | 0.0 | 0.00 | 0.25 | 0.00 | 92 | 1017.2 | |
| 20260502032321 | 8 | 172 | 0.0 | 1.6 | 0.00 | 0.25 | 0.00 | 92 | 1017.3 |
| 20260502031321 | 8 | 113 | 0.0 | 3.2 | 0.00 | 0.25 | 0.00 | 92 | 1017.3 |
| 20260502030321 | 7 | 132 | 1.6 | 3.2 | 0.00 | 0.25 | 0.00 | 92 | 1017.4 |
| 20260502025321 | 7 | 0.0 | 0.0 | 0.00 | 0.25 | 0.00 | 91 | 1017.4 | |
| 20260502024321 | 7 | 0.0 | 0.0 | 0.00 | 0.25 | 0.00 | 91 | 1017.4 | |
| 20260502023321 | 7 | 0.0 | 0.0 | 0.00 | 0.25 | 0.00 | 91 | 1017.5 | |
| 20260502022321 | 8 | 0.0 | 0.0 | 0.00 | 0.25 | 0.00 | 90 | 1017.6 | |
| 20260502021322 | 8 | 0.0 | 0.0 | 0.00 | 0.25 | 0.00 | 91 | 1017.7 | |
| 20260502020322 | 8 | 104 | 1.6 | 3.2 | 0.00 | 0.25 | 0.00 | 92 | 1017.7 |
| 20260502015322 | 8 | 0.0 | 0.0 | 0.00 | 0.25 | 0.00 | 92 | 1017.7 | |
| 20260502014343 | 8 | 0.0 | 0.0 | 0.00 | 0.25 | 0.00 | 92 | 1017.8 | |
| 20260502013322 | 8 | 0.0 | 0.0 | 0.00 | 0.25 | 0.00 | 91 | 1018.0 | |
| 20260502012323 | 8 | 305 | 4.8 | 4.8 | 0.00 | 0.25 | 0.00 | 91 | 1018.0 |
| 20260502011323 | 8 | 153 | 1.6 | 3.2 | 0.00 | 0.25 | 0.00 | 91 | 1018.1 |
| 20260502010323 | 8 | 0.0 | 0.0 | 0.00 | 0.25 | 0.00 | 91 | 1018.2 |